Location: Partizánske
(48.6285°N, 18.3769°E)
Time: 18:40:47
(UTC+02:00)

Explorer 7 - All Passes

Search period start: 07 July 2022 00:00
Search period end: 17 July 2022 00:00
Orbit: 482 x 669 km, 50.3° (Epoch: 06 July)

Date Brightness Start Highest point End Pass type
(mag) Time Alt. Az. Time Alt. Az. Time Alt. Az.
07 Jul - 00:02:42 10° W 00:07:34 72° N 00:12:17 10° E visible
07 Jul - 01:43:21 10° WNW 01:48:10 72° SSW 01:52:44 10° ESE visible
07 Jul - 03:24:25 10° W 03:28:05 23° SW 03:31:37 10° S visible
07 Jul - 19:08:27 10° SSE 19:09:49 11° SE 19:11:10 10° ESE daylight
07 Jul - 20:44:48 10° SW 20:49:21 43° SSE 20:53:57 10° ENE daylight
07 Jul - 22:24:49 10° WSW 22:29:42 83° NNW 22:34:32 10° ENE visible
08 Jul - 00:05:33 10° W 00:10:26 75° N 00:15:10 10° E visible
08 Jul - 01:46:12 10° WNW 01:50:55 57° SSW 01:55:25 10° SE visible
08 Jul - 03:27:46 10° W 03:30:37 16° SW 03:33:23 10° S visible
08 Jul - 19:09:18 10° S 19:12:18 17° SE 19:15:18 10° E daylight
08 Jul - 20:47:20 10° SW 20:52:03 56° SSE 20:56:49 10° ENE daylight
08 Jul - 22:27:40 10° W 22:32:33 76° N 22:37:22 10° ENE visible
09 Jul - 00:08:23 10° WNW 00:13:16 82° N 00:18:01 10° E visible
09 Jul - 01:49:04 10° WNW 01:53:37 43° SSW 01:57:58 10° SE visible
09 Jul - 03:32:02 10° WSW 03:33:05 11° SW 03:34:08 10° SW visible
09 Jul - 19:11:04 10° S 19:14:49 23° SE 19:18:39 10° E daylight
09 Jul - 20:49:59 10° WSW 20:54:48 71° SSE 20:59:39 10° ENE daylight
09 Jul - 22:30:32 10° W 22:35:24 72° N 22:40:14 10° E visible
10 Jul - 00:11:14 10° WNW 00:16:06 86° SSW 00:20:49 10° ESE visible
10 Jul - 01:52:00 10° W 01:56:15 32° SW 02:00:21 10° SSE visible
10 Jul - 19:13:12 10° SSW 19:17:24 32° SE 19:21:42 10° E daylight
10 Jul - 20:52:44 10° WSW 20:57:35 85° SSE 21:02:28 10° ENE daylight
10 Jul - 22:33:23 10° W 22:38:16 72° N 22:43:05 10° E visible
11 Jul - 00:14:02 10° WNW 00:18:53 72° SSW 00:23:35 10° ESE visible
11 Jul - 01:55:04 10° W 01:58:50 23° SW 02:02:29 10° S visible
11 Jul - 17:39:18 10° SE 17:40:32 11° SE 17:41:46 10° ESE daylight
11 Jul - 19:15:33 10° SW 19:20:03 43° SSE 19:24:39 10° ENE daylight
11 Jul - 20:55:32 10° WSW 21:00:23 83° NNW 21:05:17 10° ENE daylight
11 Jul - 22:36:15 10° W 22:41:08 75° N 22:45:56 10° E visible
12 Jul - 00:16:51 10° WNW 00:21:38 57° SSW 00:26:14 10° SE visible
12 Jul - 01:58:23 10° W 02:01:22 17° SW 02:04:16 10° S visible
12 Jul - 17:40:06 10° S 17:43:00 16° SE 17:45:57 10° E daylight
12 Jul - 19:18:05 10° SW 19:22:44 56° SSE 19:27:30 10° ENE daylight
12 Jul - 20:58:23 10° W 21:03:13 76° N 21:08:06 10° ENE daylight
12 Jul - 22:39:04 10° WNW 22:43:58 83° NNE 22:48:47 10° E visible
13 Jul - 00:19:43 10° WNW 00:24:19 43° SSW 00:28:46 10° SE visible
13 Jul - 02:02:29 10° WSW 02:03:49 11° SW 02:05:09 10° SW visible
13 Jul - 17:41:51 10° S 17:45:31 23° SE 17:49:18 10° E daylight
13 Jul - 19:20:44 10° WSW 19:25:28 71° SSE 19:30:20 10° ENE daylight
13 Jul - 21:01:14 10° W 21:06:05 72° N 21:10:56 10° E daylight
13 Jul - 22:41:53 10° WNW 22:46:46 86° SSW 22:51:36 10° ESE visible
14 Jul - 00:22:38 10° W 00:26:57 32° SW 00:31:08 10° SSE visible
14 Jul - 17:43:58 10° SSW 17:48:06 31° SE 17:52:21 10° E daylight
14 Jul - 19:23:27 10° WSW 19:28:14 85° SSE 19:33:08 10° ENE daylight
14 Jul - 21:04:05 10° W 21:08:56 72° N 21:13:47 10° E daylight
14 Jul - 22:44:41 10° WNW 22:49:33 72° SSW 22:54:20 10° ESE visible
15 Jul - 00:25:41 10° W 00:29:31 24° SW 00:33:17 10° S visible
15 Jul - 16:10:16 10° SE 16:11:14 11° SE 16:12:13 10° ESE daylight
15 Jul - 17:46:19 10° SW 17:50:42 42° SSE 17:55:17 10° ENE daylight
15 Jul - 19:26:15 10° WSW 19:31:03 83° N 19:35:56 10° ENE daylight
15 Jul - 21:06:55 10° WNW 21:11:46 76° N 21:16:38 10° E daylight
15 Jul - 22:47:30 10° WNW 22:52:17 57° SSW 22:56:59 10° SE visible
16 Jul - 00:28:58 10° W 00:32:03 17° SW 00:35:03 10° S visible
16 Jul - 16:10:55 10° S 16:13:41 16° SE 16:16:32 10° E daylight
16 Jul - 17:48:50 10° SW 17:53:23 56° SSE 17:58:07 10° ENE daylight
16 Jul - 19:29:05 10° W 19:33:52 76° N 19:38:45 10° ENE daylight
16 Jul - 21:09:44 10° WNW 21:14:36 83° N 21:19:28 10° ESE daylight
16 Jul - 22:50:21 10° WNW 22:54:57 44° SSW 22:59:30 10° SE visible
